Weather in Ladynka

Ukraine / Chernihiv Region     51°17′09″N   31°08′30″E
temp.,
°C
wind,
m/s
gust,
m/s
humid.,
%
clouds,
%
prec.,
mm/h
press.,
hPa
HPBL,
m
6 may, thu
thu600:00+12s81671100 0.0 1006619
03:00+9s8178599 0.8 1006640
06:00+9s8158686 0.0 1005529
09:00+11ssw91379100 0.1 1005898
12:00+8w41089100 3.7 1008642
15:00+13wnw485799 3.8 10091517
18:00+14sw3752100 0.0 10092126
21:00+8wnw236774 0.1 101224
7 may, fri
fri700:00+7sw335998 0.0 101321
03:00+5sw33735 0.0 101423
06:00+5sw347410 0.0 101454
09:00+11s586167 0.0 1014476
12:00+14s71152100 0.0 10121828
15:00+15s81157100 0.0 10101986
18:00+12s81472100 0.3 1008843
21:00+11s61396100 2.2 1007577
8 may, sat
sat800:00+10s1199100 6.0 100654
03:00+11w4996100 9.1 1005425
06:00+10w51091100 1.2 1005515
09:00+8w81181100 1.3 1008941
12:00+7w81481100 0.1 10111295
15:00+10wnw7126487 0.6 10121460
18:00+10nw712615 0.3 10141889
21:00+6wnw48705 0.3 1017150
9 may, sun
sun900:00+4w39790 0.0 1019195
03:00+3w39890 0.0 1021187
06:00+3wnw410940 0.0 1022238
09:00+8nw57720 0.0 1024674
12:00+12nw565311 0.0 10251662
15:00+13nw454895 0.0 10251844
18:00+13wnw345577 0.0 1026511
21:00+8s116221 0.0 102710
10 may, mon
mon1000:00+6sse22675 0.0 102916
03:00+5s22745 0.0 102918
06:00+5sse33785 0.0 103034
09:00+11sse34635 0.0 1031386
12:00+15sse44500 0.0 10311481
15:00+16e33390 0.0 10291481
18:00+15e34525 0.0 10281268
21:00+10e22655 0.0 102811